GFSNIL_sfc_30mbdewp_000.txt.gz
Dewpoint
36 35 34 33 32 32 35 35 37 36 34 33 33 33 34 33 33 33 32 32 33 34
36 36 36 36 35 36 35 35 35 35 32 32 32 33 33 32 32 32 31 31 32 32
35 35 37 36 35 33 33 34 33 31 30 30 30 31 32 31 31 31 32 32 32 31
35 35 35 35 33 32 32 32 31 30 28 26 25 25 26 28 31 32 27 25 23 22
37 35 33 32 30 30 30 30 28 27 25 22 22 22 23 26 25 22 21 20 20 20
33 36 33 29 29 27 26 24 23 22 19 19 21 22 24 23 22 20 20 20 19 18
26 31 31 28 29 31 33 33 25 17 18 20 22 23 21 20 20 20 19 19 19 18
34 32 31 31 31 33 33 33 20 16 18 21 22 22 20 20 19 18 18 18 18 16
33 34 34 32 34 33 34 23 14 16 20 21 21 24 23 21 19 18 18 17 18 19
32 33 34 35 35 34 25 17 15 19 21 21 21 24 25 24 20 20 19 20 20 19
30 31 32 34 32 31 24 18 18 22 23 22 22 24 27 26 25 23 22 22 21 20
31 31 31 31 31 32 27 17 23 23 23 24 26 26 26 26 22 21 20 20 20 19
32 32 32 32 31 30 17 22 22 21 22 22 19 23 21 20 20 17 19 19 18 18
31 30 30 30 24 18 22 22 19 18 20 19 18 20 18 16 17 17 18 17 17 19

GFSNIL_sfc_30mbdewp_003.txt.gz
Dewpoint
32 32 34 34 34 34 34 35 37 36 33 32 32 32 32 30 30 30 28 26 28 29
34 35 36 36 36 34 35 36 36 34 33 34 32 31 32 29 28 29 29 28 29 30
35 35 35 35 35 35 34 35 34 34 35 31 29 29 29 28 28 29 29 30 28 24
28 28 31 33 35 33 33 33 33 32 29 28 26 24 23 23 26 29 27 23 22 20
29 30 32 33 32 31 30 29 30 31 31 26 21 21 22 24 26 22 20 19 20 18
29 29 29 28 27 27 27 27 30 33 25 19 20 21 23 24 21 19 20 19 18 18
29 30 28 27 27 28 31 33 31 29 23 20 21 22 23 20 19 20 19 19 19 19
30 31 31 31 30 31 31 31 31 27 17 20 21 22 20 19 20 19 19 19 19 18
29 30 31 33 33 33 33 32 22 12 18 21 21 23 23 23 20 20 19 20 19 20
31 31 32 32 34 32 29 20 18 18 21 21 21 24 26 27 25 23 22 23 22 19
30 29 31 32 33 31 31 30 18 22 23 23 26 27 27 27 23 21 20 19 19 19
29 30 31 31 31 31 30 23 23 23 22 21 19 23 22 21 20 18 17 18 18 18
29 31 31 31 31 30 18 22 20 20 19 17 16 19 17 17 19 16 17 17 17 17
28 28 27 27 23 18 22 21 17 18 17 15 16 15 15 15 16 16 19 17 17 18

GFSNIL_sfc_30mbdewp_006.txt.gz
Dewpoint
34 35 36 36 36 35 35 34 36 35 33 33 34 33 33 30 29 29 26 25 26 28
32 29 29 31 33 34 35 36 36 34 35 36 35 34 32 30 27 28 27 27 28 29
24 26 29 31 32 33 35 35 35 35 35 32 31 29 30 28 26 27 29 29 29 24
26 27 27 27 30 33 33 34 33 31 32 29 28 29 25 23 24 27 28 23 21 20
27 27 27 28 29 31 31 30 30 31 31 32 28 25 21 22 25 23 21 19 20 19
27 28 28 28 27 28 28 29 30 32 31 27 23 21 22 24 23 20 19 20 20 19
27 29 29 30 30 29 29 32 32 30 30 25 21 22 23 22 19 19 20 20 20 20
29 29 30 31 32 32 32 33 32 31 25 19 21 22 21 19 20 20 20 20 21 20
28 30 30 31 32 33 35 31 22 16 19 21 21 25 26 27 27 24 23 23 23 22
29 29 29 31 31 32 31 29 26 21 22 22 27 27 28 28 24 22 21 18 17 16
28 28 29 30 31 31 31 31 24 23 23 24 22 23 25 23 20 19 18 16 17 16
28 28 28 30 30 30 31 28 22 22 21 15 18 20 18 18 19 18 17 17 17 17
27 27 28 28 27 28 22 20 21 19 17 16 15 16 16 17 17 15 17 19 17 17
27 26 26 25 24 20 20 21 19 18 16 14 15 15 16 16 16 15 18 17 17 18

GFSNIL_sfc_30mbdewp_009.txt.gz
Dewpoint
29 25 24 25 25 25 27 29 37 38 36 36 36 34 34 31 29 29 27 26 27 25
25 25 24 26 25 24 30 34 38 37 35 37 34 34 31 30 30 29 29 28 28 27
25 26 26 26 25 27 30 35 38 36 36 33 35 31 31 29 29 27 27 26 28 26
25 27 27 27 27 28 31 34 36 36 33 34 31 30 29 27 25 25 25 28 25 23
27 28 27 27 28 30 30 32 33 33 32 32 33 31 26 24 22 24 24 23 21 21
26 28 28 28 29 30 31 30 30 32 33 31 29 26 23 24 25 24 22 21 21 21
27 28 29 30 30 31 32 33 33 33 33 32 26 22 23 23 22 21 21 22 22 22
28 30 30 30 30 31 33 34 32 29 21 22 22 21 22 21 22 24 23 22 20 19
27 29 29 30 30 31 33 33 28 26 24 23 23 27 29 26 22 20 17 15 14 14
27 28 29 29 28 30 31 32 32 26 25 26 25 25 26 23 17 15 15 14 12 13
26 27 28 28 27 30 30 30 31 26 24 23 21 22 20 20 17 15 14 13 14 14
25 27 28 27 27 27 28 28 27 24 22 16 17 18 18 17 17 16 15 15 15 15
26 27 27 27 26 26 26 19 22 21 17 16 16 17 17 17 18 17 16 15 14 15
27 27 27 26 24 23 21 22 23 20 18 16 16 16 16 17 18 17 15 12 11 14

GFSNIL_sfc_30mbdewp_015.txt.gz
Dewpoint
23 24 21 22 23 21 21 21 23 25 30 32 32 36 36 37 37 33 28 25 24 23
26 26 25 25 25 22 22 21 22 26 28 31 36 37 37 37 33 32 26 24 23 21
25 26 26 25 25 23 24 24 24 24 25 28 36 35 36 31 26 26 24 20 21 22
26 26 25 25 25 24 25 24 24 25 26 27 27 30 30 27 28 30 23 21 24 22
26 25 25 25 25 25 25 25 25 26 26 25 25 28 27 27 26 25 21 22 23 22
23 24 24 25 25 26 24 24 26 26 25 25 25 27 29 28 23 21 23 24 23 24
22 25 25 25 26 25 24 25 26 25 25 25 24 22 21 20 21 22 23 26 23 20
23 25 24 23 25 24 26 25 25 24 26 29 24 21 25 24 23 24 22 20 18 14
23 24 22 23 25 24 24 23 24 23 24 29 26 27 25 20 20 19 18 16 14 14
22 21 22 21 20 21 23 24 23 23 23 28 29 27 23 21 18 20 18 15 14 13
19 17 18 19 19 20 23 24 23 22 24 25 26 23 20 19 20 20 18 16 15 14
16 18 18 18 19 22 24 24 23 22 22 21 24 21 19 17 20 21 19 18 16 14
17 16 17 18 21 23 24 24 22 21 21 22 24 20 19 18 20 20 20 18 16 14
18 19 21 22 22 24 24 24 24 24 24 24 23 23 19 18 19 21 19 17 16 16